Time,TemperatureF,DewpointF,PressureIn,WindDirection,WindDirectionDegrees,WindSpeedMPH,WindSpeedGustMPH,Humidity,HourlyPrecipIn,Conditions,Clouds,dailyrainin,SoftwareType,DateUTC
2013-02-08 00:02:00,36.0,33.0,-100.00,ESE,105,2.0,7.0,87,-99.99,,,-99.99,,2013-02-08 05:02:00,
2013-02-08 00:12:00,36.0,33.0,-100.00,ESE,105,2.0,6.0,88,-99.99,,,-99.99,,2013-02-08 05:12:00,
2013-02-08 00:22:00,36.0,33.0,-100.00,ENE,75,2.0,6.0,88,-99.99,,,-99.99,,2013-02-08 05:22:00,
2013-02-08 00:32:00,36.0,33.0,-100.00,East,100,2.0,7.0,88,-99.99,,,-99.99,,2013-02-08 05:32:00,
2013-02-08 00:42:00,36.0,33.0,-100.00,East,90,2.0,6.0,89,-99.99,,,-99.99,,2013-02-08 05:42:00,
2013-02-08 00:52:00,36.0,34.0,-100.00,SE,125,2.0,7.0,89,-99.99,,,-99.99,,2013-02-08 05:52:00,
2013-02-08 01:02:00,37.0,34.0,-100.00,East,85,2.0,6.0,89,-99.99,,,-99.99,,2013-02-08 06:02:00,
2013-02-08 01:11:00,37.0,34.0,-100.00,East,95,2.0,6.0,90,-99.99,,,-99.99,,2013-02-08 06:11:00,
2013-02-08 01:21:00,37.0,35.0,-100.00,ESE,110,2.0,7.0,90,-99.99,,,-99.99,,2013-02-08 06:21:00,
2013-02-08 01:32:00,37.0,35.0,-100.00,East,85,2.0,9.0,90,-99.99,,,-99.99,,2013-02-08 06:32:00,
2013-02-08 01:42:00,38.0,36.0,-100.00,East,90,4.0,9.0,90,-99.99,,,-99.99,,2013-02-08 06:42:00,
2013-02-08 01:51:00,38.0,36.0,-100.00,East,90,4.0,9.0,90,-99.99,,,-99.99,,2013-02-08 06:51:00,
2013-02-08 02:01:00,39.0,36.0,-100.00,East,80,2.0,9.0,90,-99.99,,,-99.99,,2013-02-08 07:01:00,
2013-02-08 02:11:00,39.0,36.0,-100.00,NNE,30,2.0,9.0,90,-99.99,,,-99.99,,2013-02-08 07:11:00,
2013-02-08 02:21:00,39.0,36.0,-100.00,NNE,30,2.0,9.0,90,-99.99,,,-99.99,,2013-02-08 07:21:00,
2013-02-08 02:32:00,39.0,37.0,-100.00,East,100,2.0,10.0,90,-99.99,,,-99.99,,2013-02-08 07:32:00,
2013-02-08 02:42:00,39.0,37.0,-100.00,ENE,75,4.0,7.0,90,-99.99,,,-99.99,,2013-02-08 07:42:00,
2013-02-08 02:52:00,40.0,37.0,-100.00,East,100,4.0,11.0,90,-99.99,,,-99.99,,2013-02-08 07:52:00,
2013-02-08 03:01:00,40.0,38.0,-100.00,ESE,105,2.0,10.0,90,-99.99,,,-99.99,,2013-02-08 08:01:00,
2013-02-08 03:11:00,40.0,38.0,-100.00,SE,125,4.0,9.0,90,-99.99,,,-99.99,,2013-02-08 08:11:00,
2013-02-08 03:21:00,40.0,38.0,-100.00,NNE,30,1.0,8.0,90,-99.99,,,-99.99,,2013-02-08 08:21:00,
2013-02-08 03:32:00,41.0,38.0,-100.00,ESE,110,2.0,7.0,90,-99.99,,,-99.99,,2013-02-08 08:32:00,
2013-02-08 03:42:00,40.0,38.0,-100.00,ESE,115,2.0,7.0,90,-99.99,,,-99.99,,2013-02-08 08:42:00,
2013-02-08 03:52:00,40.0,38.0,-100.00,ENE,65,3.0,7.0,91,-99.99,,,-99.99,,2013-02-08 08:52:00,
2013-02-08 04:03:00,40.0,38.0,-100.00,East,90,2.0,7.0,91,-99.99,,,-99.99,,2013-02-08 09:03:00,
2013-02-08 04:11:00,41.0,38.0,-100.00,NE,50,2.0,11.0,91,-99.99,,,-99.99,,2013-02-08 09:11:00,
2013-02-08 04:21:00,41.0,38.0,-100.00,ESE,120,2.0,7.0,91,-99.99,,,-99.99,,2013-02-08 09:21:00,
2013-02-08 04:32:00,41.0,38.0,-100.00,ENE,75,3.0,9.0,91,-99.99,,,-99.99,,2013-02-08 09:32:00,
2013-02-08 04:42:00,41.0,38.0,-100.00,NE,50,1.0,7.0,91,-99.99,,,-99.99,,2013-02-08 09:42:00,
2013-02-08 04:52:00,41.0,39.0,-100.00,East,80,3.0,6.0,92,-99.99,,,-99.99,,2013-02-08 09:52:00,
2013-02-08 05:01:00,41.0,39.0,-100.00,East,90,2.0,7.0,92,-99.99,,,-99.99,,2013-02-08 10:01:00,
2013-02-08 05:12:00,41.0,39.0,-100.00,East,80,1.0,9.0,92,-99.99,,,-99.99,,2013-02-08 10:12:00,
2013-02-08 05:22:00,41.0,39.0,-100.00,South,185,2.0,6.0,93,-99.99,,,-99.99,,2013-02-08 10:22:00,
2013-02-08 05:32:00,41.0,39.0,-100.00,South,185,2.0,6.0,93,-99.99,,,-99.99,,2013-02-08 10:32:00,
2013-02-08 05:42:00,41.0,39.0,-100.00,South,185,2.0,6.0,93,-99.99,,,-99.99,,2013-02-08 10:42:00,
2013-02-08 05:51:00,41.0,39.0,-100.00,SE,125,2.0,6.0,93,-99.99,,,-99.99,,2013-02-08 10:51:00,
2013-02-08 06:01:00,41.0,39.0,-100.00,SE,125,2.0,6.0,93,-99.99,,,-99.99,,2013-02-08 11:01:00,
2013-02-08 06:11:00,41.0,39.0,-100.00,East,95,3.0,7.0,93,-99.99,,,-99.99,,2013-02-08 11:11:00,
2013-02-08 06:22:00,40.0,39.0,-100.00,SE,130,1.0,4.0,94,-99.99,,,-99.99,,2013-02-08 11:22:00,
2013-02-08 06:32:00,40.0,39.0,-100.00,South,185,1.0,4.0,94,-99.99,,,-99.99,,2013-02-08 11:32:00,
2013-02-08 06:42:00,40.0,39.0,-100.00,South,185,1.0,4.0,94,-99.99,,,-99.99,,2013-02-08 11:42:00,
2013-02-08 06:52:00,40.0,39.0,-100.00,ESE,115,2.0,7.0,95,-99.99,,,-99.99,,2013-02-08 11:52:00,
2013-02-08 07:02:00,40.0,39.0,-100.00,South,190,4.0,9.0,95,-99.99,,,-99.99,,2013-02-08 12:02:00,
2013-02-08 07:11:00,41.0,40.0,-100.00,SSE,165,4.0,12.0,96,-99.99,,,-99.99,,2013-02-08 12:11:00,
2013-02-08 07:22:00,41.0,40.0,-100.00,South,180,4.0,12.0,96,-99.99,,,-99.99,,2013-02-08 12:22:00,
2013-02-08 07:33:00,41.0,40.0,-100.00,South,185,10.0,13.0,96,-99.99,,,-99.99,,2013-02-08 12:33:00,
2013-02-08 07:42:00,41.0,40.0,-100.00,SSW,195,11.0,15.0,96,-99.99,,,-99.99,,2013-02-08 12:42:00,
2013-02-08 07:52:00,41.0,40.0,-100.00,SSW,200,9.0,13.0,97,-99.99,,,-99.99,,2013-02-08 12:52:00,
2013-02-08 08:02:00,41.0,40.0,-100.00,SSW,200,9.0,13.0,97,-99.99,,,-99.99,,2013-02-08 13:02:00,
2013-02-08 08:12:00,41.0,40.0,-100.00,SSW,200,9.0,13.0,97,-99.99,,,-99.99,,2013-02-08 13:12:00,
2013-02-08 08:22:00,40.0,40.0,-100.00,SW,230,7.0,17.0,97,-99.99,,,-99.99,,2013-02-08 13:22:00,
2013-02-08 08:32:00,40.0,40.0,-100.00,WSW,255,7.0,13.0,97,-99.99,,,-99.99,,2013-02-08 13:32:00,
2013-02-08 08:43:00,40.0,39.0,-100.00,SW,230,7.0,12.0,98,-99.99,,,-99.99,,2013-02-08 13:43:00,
2013-02-08 08:52:00,39.0,39.0,-100.00,WSW,250,9.0,16.0,98,-99.99,,,-99.99,,2013-02-08 13:52:00,
2013-02-08 09:02:00,38.0,38.0,-100.00,West,265,10.0,19.0,98,-99.99,,,-99.99,,2013-02-08 14:02:00,
2013-02-08 09:11:00,37.0,37.0,-100.00,SW,230,12.0,21.0,98,-99.99,,,-99.99,,2013-02-08 14:11:00,
2013-02-08 09:22:00,36.0,36.0,-100.00,WSW,255,12.0,22.0,98,-99.99,,,-99.99,,2013-02-08 14:22:00,
2013-02-08 09:32:00,35.0,35.0,-100.00,WSW,245,13.0,21.0,98,-99.99,,,-99.99,,2013-02-08 14:32:00,
2013-02-08 09:42:00,35.0,35.0,-100.00,SW,230,8.0,15.0,98,-99.99,,,-99.99,,2013-02-08 14:42:00,
2013-02-08 09:52:00,34.0,34.0,-100.00,SW,235,14.0,20.0,99,-99.99,,,-99.99,,2013-02-08 14:52:00,
2013-02-08 10:02:00,34.0,34.0,-100.00,WSW,245,11.0,22.0,99,-99.99,,,-99.99,,2013-02-08 15:02:00,
2013-02-08 10:12:00,33.0,33.0,-100.00,WSW,245,11.0,22.0,99,-99.99,,,-99.99,,2013-02-08 15:12:00,
2013-02-08 10:22:00,33.0,33.0,-100.00,West,265,10.0,17.0,99,-99.99,,,-99.99,,2013-02-08 15:22:00,
2013-02-08 10:32:00,33.0,33.0,-100.00,West,260,9.0,17.0,99,-99.99,,,-99.99,,2013-02-08 15:32:00,
2013-02-08 10:42:00,33.0,33.0,-100.00,WSW,255,8.0,16.0,99,-99.99,,,-99.99,,2013-02-08 15:42:00,
2013-02-08 10:52:00,33.0,33.0,-100.00,West,270,9.0,14.0,99,-99.99,,,-99.99,,2013-02-08 15:52:00,
2013-02-08 11:02:00,32.0,32.0,-100.00,West,265,14.0,20.0,99,-99.99,,,-99.99,,2013-02-08 16:02:00,
2013-02-08 11:11:00,32.0,32.0,-100.00,NW,315,9.0,19.0,99,-99.99,,,-99.99,,2013-02-08 16:11:00,
2013-02-08 11:22:00,31.0,31.0,-100.00,WNW,290,6.0,21.0,99,-99.99,,,-99.99,,2013-02-08 16:22:00,
2013-02-08 11:32:00,30.0,30.0,-100.00,WNW,290,11.0,22.0,99,-99.99,,,-99.99,,2013-02-08 16:32:00,
2013-02-08 11:42:00,30.0,30.0,-100.00,NW,305,9.0,18.0,99,-99.99,,,-99.99,,2013-02-08 16:42:00,
2013-02-08 11:52:00,30.0,30.0,-100.00,West,280,7.0,18.0,99,-99.99,,,-99.99,,2013-02-08 16:52:00,
2013-02-08 12:04:00,30.0,30.0,-100.00,NW,310,13.0,20.0,99,-99.99,,,-99.99,,2013-02-08 17:04:00,
2013-02-08 12:12:00,29.0,29.0,-100.00,NW,325,10.0,16.0,99,-99.99,,,-99.99,,2013-02-08 17:12:00,
2013-02-08 12:23:00,29.0,29.0,-100.00,NW,325,10.0,16.0,99,-99.99,,,-99.99,,2013-02-08 17:23:00,
2013-02-08 12:33:00,29.0,29.0,-100.00,NW,310,12.0,21.0,99,-99.99,,,-99.99,,2013-02-08 17:33:00,
2013-02-08 12:42:00,29.0,29.0,-100.00,NW,310,12.0,21.0,99,-99.99,,,-99.99,,2013-02-08 17:42:00,
2013-02-08 12:52:00,29.0,29.0,-100.00,WNW,285,11.0,21.0,99,-99.99,,,-99.99,,2013-02-08 17:52:00,
2013-02-08 13:02:00,28.0,28.0,-100.00,WNW,285,13.0,32.0,99,-99.99,,,-99.99,,2013-02-08 18:02:00,
2013-02-08 13:12:00,28.0,28.0,-100.00,NW,305,16.0,29.0,99,-99.99,,,-99.99,,2013-02-08 18:12:00,
2013-02-08 13:25:00,28.0,28.0,-100.00,West,280,12.0,27.0,99,-99.99,,,-99.99,,2013-02-08 18:25:00,
2013-02-08 13:35:00,28.0,28.0,-100.00,NW,315,14.0,24.0,99,-99.99,,,-99.99,,2013-02-08 18:35:00,
2013-02-08 13:43:00,28.0,28.0,-100.00,WNW,295,14.0,25.0,99,-99.99,,,-99.99,,2013-02-08 18:43:00,
2013-02-08 13:52:00,28.0,28.0,-100.00,North,350,12.0,29.0,99,-99.99,,,-99.99,,2013-02-08 18:52:00,
2013-02-08 14:02:00,27.0,27.0,-100.00,West,270,14.0,29.0,99,-99.99,,,-99.99,,2013-02-08 19:02:00,
2013-02-08 14:11:00,27.0,27.0,-100.00,West,280,15.0,27.0,99,-99.99,,,-99.99,,2013-02-08 19:11:00,
2013-02-08 14:22:00,27.0,27.0,-100.00,NW,315,15.0,30.0,99,-99.99,,,-99.99,,2013-02-08 19:22:00,
2013-02-08 14:32:00,28.0,28.0,-100.00,NW,310,16.0,26.0,99,-99.99,,,-99.99,,2013-02-08 19:32:00,
2013-02-08 14:42:00,28.0,28.0,-100.00,WNW,295,14.0,27.0,99,-99.99,,,-99.99,,2013-02-08 19:42:00,
2013-02-08 14:52:00,28.0,28.0,-100.00,NW,310,16.0,31.0,99,-99.99,,,-99.99,,2013-02-08 19:52:00,
2013-02-08 15:02:00,28.0,28.0,-100.00,NW,325,12.0,23.0,99,-99.99,,,-99.99,,2013-02-08 20:02:00,
2013-02-08 15:12:00,29.0,29.0,-100.00,NW,315,12.0,25.0,99,-99.99,,,-99.99,,2013-02-08 20:12:00,
2013-02-08 15:22:00,29.0,29.0,-100.00,NW,310,13.0,21.0,99,-99.99,,,-99.99,,2013-02-08 20:22:00,
2013-02-08 15:32:00,29.0,29.0,-100.00,NW,320,10.0,26.0,99,-99.99,,,-99.99,,2013-02-08 20:32:00,
2013-02-08 15:42:00,29.0,29.0,-100.00,NW,315,18.0,30.0,99,-99.99,,,-99.99,,2013-02-08 20:42:00,
2013-02-08 15:52:00,29.0,29.0,-100.00,WNW,290,11.0,25.0,99,-99.99,,,-99.99,,2013-02-08 20:52:00,
2013-02-08 16:02:00,29.0,29.0,-100.00,WNW,295,11.0,22.0,99,-99.99,,,-99.99,,2013-02-08 21:02:00,
2013-02-08 16:11:00,29.0,29.0,-100.00,North,0,12.0,27.0,99,-99.99,,,-99.99,,2013-02-08 21:11:00,
2013-02-08 16:22:00,29.0,28.0,-100.00,NW,310,13.0,21.0,99,-99.99,,,-99.99,,2013-02-08 21:22:00,
2013-02-08 16:32:00,28.0,28.0,-100.00,West,280,13.0,29.0,99,-99.99,,,-99.99,,2013-02-08 21:32:00,
2013-02-08 16:42:00,28.0,28.0,-100.00,NW,320,11.0,24.0,99,-99.99,,,-99.99,,2013-02-08 21:42:00,
2013-02-08 16:52:00,28.0,28.0,-100.00,NW,315,14.0,24.0,98,-99.99,,,-99.99,,2013-02-08 21:52:00,
2013-02-08 17:02:00,28.0,28.0,-100.00,NW,315,12.0,34.0,98,-99.99,,,-99.99,,2013-02-08 22:02:00,
2013-02-08 17:11:00,28.0,28.0,-100.00,WNW,285,10.0,25.0,98,-99.99,,,-99.99,,2013-02-08 22:11:00,
2013-02-08 17:22:00,28.0,27.0,-100.00,WNW,290,17.0,34.0,98,-99.99,,,-99.99,,2013-02-08 22:22:00,
2013-02-08 17:32:00,27.0,27.0,-100.00,WNW,300,12.0,31.0,98,-99.99,,,-99.99,,2013-02-08 22:32:00,
2013-02-08 17:42:00,35.0,35.0,-100.00,WNW,295,16.0,29.0,98,-99.99,,,-99.99,,2013-02-08 22:42:00,
2013-02-08 17:52:00,28.0,27.0,-100.00,NW,305,15.0,29.0,98,-99.99,,,-99.99,,2013-02-08 22:52:00,
2013-02-08 18:02:00,27.0,27.0,-100.00,WNW,290,14.0,22.0,98,-99.99,,,-99.99,,2013-02-08 23:02:00,
2013-02-08 18:11:00,28.0,27.0,-100.00,WNW,295,13.0,22.0,98,-99.99,,,-99.99,,2013-02-08 23:11:00,
2013-02-08 18:21:00,27.0,27.0,-100.00,WNW,300,12.0,22.0,98,-99.99,,,-99.99,,2013-02-08 23:21:00,
2013-02-08 18:32:00,27.0,27.0,-100.00,WNW,290,10.0,21.0,98,-99.99,,,-99.99,,2013-02-08 23:32:00,
2013-02-08 18:42:00,27.0,27.0,-100.00,WNW,290,12.0,28.0,98,-99.99,,,-99.99,,2013-02-08 23:42:00,
2013-02-08 18:52:00,27.0,27.0,-100.00,WNW,300,12.0,27.0,98,-99.99,,,-99.99,,2013-02-08 23:52:00,
2013-02-08 19:02:00,27.0,27.0,-100.00,WNW,295,11.0,23.0,98,-99.99,,,-99.99,,2013-02-09 00:02:00,
2013-02-08 19:11:00,27.0,27.0,-100.00,NW,310,10.0,22.0,98,-99.99,,,-99.99,,2013-02-09 00:11:00,
2013-02-08 19:22:00,27.0,27.0,-100.00,NW,310,11.0,25.0,98,-99.99,,,-99.99,,2013-02-09 00:22:00,
2013-02-08 19:32:00,27.0,27.0,-100.00,WNW,290,14.0,22.0,98,-99.99,,,-99.99,,2013-02-09 00:32:00,
2013-02-08 19:42:00,27.0,27.0,-100.00,WNW,300,14.0,27.0,98,-99.99,,,-99.99,,2013-02-09 00:42:00,
2013-02-08 19:52:00,27.0,27.0,-100.00,NW,305,13.0,25.0,98,-99.99,,,-99.99,,2013-02-09 00:52:00,
2013-02-08 20:02:00,27.0,27.0,-100.00,NW,305,12.0,25.0,98,-99.99,,,-99.99,,2013-02-09 01:02:00,
2013-02-08 20:11:00,27.0,27.0,-100.00,NW,320,14.0,28.0,98,-99.99,,,-99.99,,2013-02-09 01:11:00,
2013-02-08 20:22:00,28.0,27.0,-100.00,NW,325,16.0,25.0,98,-99.99,,,-99.99,,2013-02-09 01:22:00,
2013-02-08 20:32:00,27.0,27.0,-100.00,NW,310,12.0,25.0,98,-99.99,,,-99.99,,2013-02-09 01:32:00,
2013-02-08 20:42:00,27.0,27.0,-100.00,NW,305,11.0,22.0,98,-99.99,,,-99.99,,2013-02-09 01:42:00,
2013-02-08 20:52:00,27.0,27.0,-100.00,NW,305,16.0,22.0,98,-99.99,,,-99.99,,2013-02-09 01:52:00,
2013-02-08 21:01:00,27.0,27.0,-100.00,West,280,13.0,24.0,98,-99.99,,,-99.99,,2013-02-09 02:01:00,
2013-02-08 21:11:00,27.0,27.0,-100.00,WNW,300,14.0,24.0,98,-99.99,,,-99.99,,2013-02-09 02:11:00,
2013-02-08 21:21:00,27.0,27.0,-100.00,NW,325,12.0,23.0,98,-99.99,,,-99.99,,2013-02-09 02:21:00,
2013-02-08 21:32:00,27.0,27.0,-100.00,WNW,300,11.0,28.0,98,-99.99,,,-99.99,,2013-02-09 02:32:00,
2013-02-08 21:42:00,27.0,27.0,-100.00,NW,315,16.0,27.0,98,-99.99,,,-99.99,,2013-02-09 02:42:00,
2013-02-08 21:52:00,27.0,27.0,-100.00,WNW,285,10.0,20.0,98,-99.99,,,-99.99,,2013-02-09 02:52:00,
2013-02-08 22:02:00,28.0,27.0,-100.00,West,280,7.0,21.0,98,-99.99,,,-99.99,,2013-02-09 03:02:00,
2013-02-08 22:11:00,27.0,27.0,-100.00,WNW,290,12.0,23.0,98,-99.99,,,-99.99,,2013-02-09 03:11:00,
2013-02-08 22:22:00,28.0,27.0,-100.00,WNW,300,14.0,24.0,98,-99.99,,,-99.99,,2013-02-09 03:22:00,
2013-02-08 22:32:00,28.0,27.0,-100.00,NW,320,15.0,25.0,98,-99.99,,,-99.99,,2013-02-09 03:32:00,
2013-02-08 22:42:00,28.0,27.0,-100.00,NW,315,12.0,25.0,98,-99.99,,,-99.99,,2013-02-09 03:42:00,
2013-02-08 22:52:00,28.0,27.0,-100.00,NW,320,14.0,24.0,98,-99.99,,,-99.99,,2013-02-09 03:52:00,
2013-02-08 23:03:00,28.0,27.0,-100.00,NW,320,11.0,18.0,98,-99.99,,,-99.99,,2013-02-09 04:03:00,
2013-02-08 23:12:00,28.0,27.0,-100.00,NW,320,11.0,18.0,98,-99.99,,,-99.99,,2013-02-09 04:12:00,
2013-02-08 23:23:00,28.0,27.0,-100.00,WNW,285,10.0,17.0,98,-99.99,,,-99.99,,2013-02-09 04:23:00,
2013-02-08 23:32:00,28.0,27.0,-100.00,NW,310,12.0,20.0,98,-99.99,,,-99.99,,2013-02-09 04:32:00,
2013-02-08 23:42:00,28.0,27.0,-100.00,WNW,290,12.0,22.0,98,-99.99,,,-99.99,,2013-02-09 04:42:00,
2013-02-08 23:52:00,27.0,27.0,-100.00,NW,315,11.0,23.0,98,-99.99,,,-99.99,,2013-02-09 04:52:00,